Location: ??????
(41.3164°N, 22.6615°E)
Time: 23:57:07
(UTC+00:00)

Cosmos 1300 - Pass Details

Date: 16 October 2021
Orbit: 509 x 512 km, 82.5° (Epoch: 26 November)

Event Time Altitude Azimuth Distance (km) Brightness Sun altitude
Rises 16:53:21 0° 159° (SSE) 2,612 6.1 -13.2°
Reaches altitude 10° 16:55:43 10° 146° (SE) 1,731 5.0 -13.7°
Enters shadow 16:58:16 24° 106° (ESE) 1,094 3.8 -14.2°
Exits shadow 17:03:06 - 27° (NNE) 2,135 5.6 -15.1°
Sets 17:04:24 0° 21° (NNE) 2,634 6.1 -15.3°
